Hourly Data Report for October 13, 2019

All times are specified in Local Standard Time (LST). Add 1 hour to adjust for Daylight Saving Time where and when it is observed.

EUREKA CLIMATE
NUNAVUT
Current Station Operator: ECCC - MSC

79°59'21.000" N
85°56'02.000" W
10.00 m
2401199
71613
NEK

Download Data

Hourly Data (October 2019)
Hourly Data Report for October 13, 2019
TIME Temp Definition
°C
Dew Point Definition
°C
Rel Hum Definition
%
Wind Dir Definition
10's deg

Wind Spd Definition
km/h
Visibility Definition
km
Stn Press Definition
kPa
Hmdx Definition


Wind Chill Definition


Weather Definition


00:00 -10.0 -11.2 91 2 9   101.09   -15 LegendNANA
01:00 -9.3 -10.6 91 3 6   101.05   -13 LegendNANA
02:00 -8.9 -10.0 92 1 6   101.03   -12 LegendNANA
03:00 -8.7 -9.1 97 1 3   101.01   -10 LegendNANA
04:00 -8.5 -8.8 97 1 3   100.97   -10 LegendNANA
05:00 -7.7 -8.0 98 6 4   100.95   -10 LegendNANA
06:00 -6.2 -6.7 97 12 9   100.91   -10 LegendNANA
07:00 -5.5 -7.3 88 15 16   100.88   -11 LegendNANA
08:00 -5.6 -7.1 89 19 11   100.85   -10 LegendNANA
09:00 -5.7 -7.0 90 14 9   100.79   -10 LegendNANA
10:00 -5.7 -7.0 91 14 18   100.74   -12 LegendNANA
11:00 -5.7 -6.9 91 13 12   100.69   -11 LegendNANA
12:00 -5.3 -6.5 92 14 12   100.64   -10 LegendNANA
13:00 -5.3 -6.2 94 13 17   100.61   -11 LegendNANA
14:00 -5.5 -6.0 96 16 11   100.58   -10 LegendNANA
15:00 -5.3 -6.1 94 14 11   100.54   -10 LegendNANA
16:00 -6.4 -6.7 98 30 8   100.50   -10 LegendNANA
17:00 -6.3 -6.5 99 29 6   100.46   -9 LegendNANA
18:00 -6.3 -6.5 98 30 3   100.42   -8 LegendNANA
19:00 -6.5 -6.7 98 29 9   100.37   -11 LegendNANA
20:00 -6.5 -6.7 98 29 8   100.35   -10 LegendNANA
21:00 -6.4 -6.6 98 29 5   100.30   -9 LegendNANA
22:00 -7.0 -7.2 98 32 6   100.24   -10 LegendNANA
23:00 -8.8 -9.2 97 1 5   100.18   -12 LegendNANA

Notes on Data Quality.

Legend

  • E = Estimated
  • M = Missing
  • NA = Not Available
Date modified: